User: anonymous   Login
Location: Pine Mountain Observatory
(43.7910°N, 120.9377°W)
Time: 01:44:21
(UTC-07:00)
Language:

Cosmos 1867 - Orbit

View from above orbital plane
View from above orbital plane
View from above satellite
View from above satellite

Ground track
Ground track

The orbit data is extracted from the following two-line orbital elements,

1 18187U 87060A   16240.44712385 -.00000103  00000-0 -11660-5 0  9998
2 18187  65.0107 330.8624 0020265 262.5251  97.3531 14.31077076521967
Epoch (UTC): 27 August 2016 10:43:51
Eccentricity: 0.0020265
inclination: 65.0107°
perigee height: 773 km
apogee height: 802 km
right ascension of ascending node: 330.8624°
argument of perigee: 262.5251°
revolutions per day: 14.31077076
mean anomaly at epoch: 97.3531°
orbit number at epoch: 52196

The dashed part of the orbit path shows where the satellite is in the earth's shadow,  

DLR